Regional Weather Roundup
Issued by NWS Upton, NY

Current Version | Previous Version | Graphics & Text | Print | Product List | Glossary Off
Versions: 1 2 3 4 5 6 7 8 9 10 11 12 13 14 15 16 17 18 19 20 21 22 23 24 25 26 27 28 29 30 31 32 33 34 35 36 37 38 39 40 41 42 43 44 45 46 47 48 49 50

577
ASUS41 KOKX 251209
RWROKX

REGIONAL WEATHER ROUNDUP
NATIONAL WEATHER SERVICE NEW YORK NY
800 AM EDT THU MAY 25 2017

NOTE: "FAIR" INDICATES FEW OR NO CLOUDS BELOW 12,000 FEET WITH NO
SIGNIFICANT WEATHER AND/OR OBSTRUCTIONS TO VISIBILITY.

NYZ071-072-176-178-NJZ106-104-251300-
NEW YORK CITY METRO AREA

CITY           SKY/WX    TMP DP  RH WIND       PRES   REMARKS
Central Park   LGT RAIN  56  55  97 VRB7      29.72F FOG
Wall St Helipt CLOUDY    57  55  94 NE14      29.68F
Bronx Bot Gard   N/A     55  54  94 NE3       29.71R
LaGuardia APRT LGT RAIN  57  55  93 NE13      29.69F
Kennedy INTL   LGT RAIN  57  56  96 E10       29.70F
Breezy Point     N/A     54 N/A N/A E17G25      N/A
Newark/Liberty LGT RAIN  57  56  96 E10       29.67F
Teterboro      LGT RAIN  56  54  93 E10G20    29.68F FOG
$$

NYZ177-179-078>081-251300-
LONG ISLAND NEW YORK

CITY           SKY/WX    TMP DP  RH WIND       PRES   REMARKS
Jones Beach      N/A     54 N/A N/A E22G29      N/A
Matinecock PT    N/A     55 N/A N/A E25         N/A
Farmingdale    RAIN      55  54  96 E10       29.71F
MacArthur/ISP  LGT RAIN  55  54  96 E13G22    29.72S FOG
Shirley        LGT RAIN  54  50  87 VRB7      29.72F
Mt Sinai Harb    N/A     55 N/A N/A E14G20      N/A
Westhampton    LGT RAIN  54  52  93 E13G25    29.75F FOG
East Hampton   LGT RAIN  53  52  97 E14G26    29.75F
Montauk          N/A     55  54  96 E10G22    29.77F
$$

NYZ052-065-067-251300-
HUDSON VALLEY

CITY           SKY/WX    TMP DP  RH WIND       PRES   REMARKS
White Plains   LGT RAIN  55  53  93 E14G25    29.70F
Larchmont Harb   N/A     55 N/A N/A NE30        N/A
Croton O-T Hud   N/A     55 N/A N/A E5          N/A
Newburgh       LGT RAIN  55  54  94 E12       29.73F
Montgomery     LGT RAIN  55  53  93 NE9       29.70F
Poughkeepsie   LGT RAIN  56  52  86 NE5       29.72F
Albany         CLOUDY    59  48  67 CALM      29.78F
$$

NJZ001-105-106-008-010-013-015-019>022-104-251300-
NEW JERSEY

CITY           SKY/WX    TMP DP  RH WIND       PRES   REMARKS
Newark/Liberty LGT RAIN  57  56  96 E10       29.67F
Teterboro      LGT RAIN  56  54  93 E10G20    29.68F FOG
Caldwell       LGT RAIN  57  54  89 E12       29.69F FOG
Somerville     LGT RAIN  57  55  93 VRB3      29.63F
Linden         DRIZZLE   57  54  91 E16       29.66F
Perth Amboy      N/A     55 N/A N/A E23G31      N/A
Sussex         LGT RAIN  55  54  96 N14       29.67F
Andover          N/A     56  53  90 VRB5      29.65F
Trenton        LGT RAIN  55  54  96 E15G23    29.62F FOG
Millville      RAIN      56  56 100 E12       29.57F FOG
Atlantic City  CLOUDY    57  54  89 E16       29.59F
Wrightstown    CLOUDY    54  53  95 E9        29.60F
Toms River     RAIN      54  54 100 E7G18     29.64F FOG
Belmar         LGT RAIN  54  53  97 E17G24    29.65F
$$

PAZ047>061-062-071-251300-
EASTERN PENNSYLVANIA

CITY           SKY/WX    TMP DP  RH WIND       PRES   REMARKS
Philadelphia   RAIN      56  53  90 E15G24    29.59F FOG
Allentown      LGT RAIN  57  53  86 E14G24    29.61F
Scranton       LGT RAIN  56  53  90 NE6       29.61F
$$

CTZ002-004>006-009-010-012-RIZ004-006-007-MAZ004-011-015-251300-
SOUTHERN NEW ENGLAND
 IN CT

CITY           SKY/WX    TMP DP  RH WIND       PRES   REMARKS
Bradley INTL   LGT RAIN  55  51  86 N9        29.81F
Hartford       LGT RAIN  56  52  86 N8        29.79F
Danbury        LGT RAIN  53  53 100 E9        29.75F FOG
Wtrbury/Oxford LGT RAIN  54  48  82 E7G17     29.76F FOG
Bridgeport     LGT RAIN  58  53  84 NE16G22   29.74F
Meriden        LGT RAIN  55  52  89 N5        29.77F
New Haven      LGT RAIN  56  53  90 NE8       29.75F
Chester        LGT RAIN  54  54 100 NE10G16   29.76F
Groton         LGT RAIN  56  54  93 E14       29.77F
Wilimantic     LGT RAIN  57  53  86 NE9       29.80F

 IN RI

CITY           SKY/WX    TMP DP  RH WIND       PRES   REMARKS
Providence     LGT RAIN  54  53  97 NE12      29.83S
Block Island   LGT RAIN  54  53  97 E15G24    29.78F FOG
Westerly       LGT RAIN  56  55  97 NE9       29.78F FOG
 IN MA

CITY           SKY/WX    TMP DP  RH WIND       PRES   REMARKS
Boston         CLOUDY    55  51  86 NE15      29.87F
Worcester      CLOUDY    51  47  86 NE13G20   29.85F
Westfield      CLOUDY    56  51  84 N7        29.82F
Provincetown   CLOUDY    55  50  83 E16G22    29.86F
Nantucket      CLOUDY    53  51  93 E17G25    29.80S FOG
$$

ANZ330-335-338-340-345-350-353-355-251300-
COASTAL MARINE OBSERVATIONS


STATION/POSITION TIME  SKY/WX   TEMP    WIND        PRES    VSBY  WAVE
                                AIR SEA DIR/SP/G                  HT/PER
                 (UTC)          (F)     (DEG/KT/KT) (MB)    (MI)  (FT/S)
NY HARB ENTRANCE 1050            55 56   90/ 19/ 23 1005.4          7/ 7
20 S FIRE ISLAND 1150            53 54   80/ 17/ 23 1004.3          6/ 7
GREAT SOUTH BAY  1130            56 63   80/ 21/ 27   N/A
23 SSW MONTAUK P 1050            53 54              1007.6          6/ 6
15 E BARNEGAT LI 1130               56                N/A           6/ 6
HUDSON CANYON    1050            54 52   60/ 12/ 14 1004.3          5/ 7
KINGS POINT      1142            56 57   90/  4/  6 1005.5
EXECUTION ROCKS  1145            56                   N/A
CENTRAL LI SOUND NOT AVBL
EASTERN LI SOUND NOT AVBL
ROBBINS REEF     1142            57      80/ 13/ 16 1005.8
$$


>>>>>>>>>>>>>>>>>>>>>>>>>>>> KEY <<<<<<<<<<<<<<<<<<<<<<<<<<<
>                                                          <
>     SKY/WX - Sky Condition/Present Weather               <
>     TMP    - Temperature in Fahrenheit                   <
>     DP     - Dew Point in Fahrenheit                     <
>     RH     - Relative Humidity in Percent                <
>     WIND   - Direction (from) and Speed in MPH           <
>     PRES   - Mean Sea Level Pressure (inches of Hg)      <
>     WCI    - Wind Chill Index                            <
>     VSB    - VISIBILITY IN MILES                         <
>     HX     - HEAT INDEX                                  <
>     TC     - TEMPERATURE IN CELSIUS                      <
>     VRB    - VARIABLE WIND DIRECTION                     <
>                                                          <
>>>>>>>>>>>>>>>>>>>>>>>>>>>> KEY <<<<<<<<<<<<<<<<<<<<<<<<<<<




USA.gov is the U.S. government's official web portal to all federal, state and local government web resources and services.